Terminal Aerodrome Forecast
Issued by NWS

Home | Current Version | Previous Version | Text Only | Print | Product List | Glossary On
Versions: 1 2 3 4 5 6 7 8 9 10 11 12 13 14 15 16 17 18 19 20 21 22
527
FTUS41 KOKX 080252 AAA
TAFHPN
TAF AMD
KHPN 080252Z 0803/0824 VRB04KT P6SM BKN150
     FM080500 04011KT P6SM BKN100
     FM080800 02014KT P6SM SCT020 OVC080
     FM081300 01014KT 5SM -SN OVC015
     FM081600 01013G20KT 2SM -SN OVC015
     FM082000 02008KT 3SM -SN SCT007 OVC015
     FM082300 02006KT P6SM OVC025
      AMD NOT SKED=

USA.gov is the U.S. government's official web portal to all federal, state and local government web resources and services.